Date Time,Air Temp,Sky Temp,Clarity,Light Level,Rain Sensor,Readings
2009-11-14 00:00:00,20.3,8.0,12.4,0.0,7.6,111
2009-11-14 00:05:00,20.1,6.5,13.6,0.0,5.4,112
2009-11-14 00:10:00,19.9,6.1,13.9,0.0,8.8,112
2009-11-14 00:15:00,20.0,6.6,13.4,0.0,10.7,111
2009-11-14 00:20:00,20.0,8.2,11.7,0.0,13.5,112
2009-11-14 00:25:00,19.9,11.4,8.4,0.0,17.6,111
2009-11-14 00:30:00,19.8,12.0,7.8,0.0,14.5,111
2009-11-14 00:35:00,19.8,12.6,7.2,0.0,15.4,112
2009-11-14 00:40:00,19.7,9.8,9.9,0.0,19.3,112
2009-11-14 00:45:00,19.6,10.2,9.3,0.0,16.9,111
2009-11-14 00:50:00,19.6,12.0,7.6,0.0,17.4,112
2009-11-14 00:55:00,19.6,10.2,9.4,0.0,16.2,111
2009-11-14 01:00:00,19.6,8.7,10.9,0.0,18.2,111
2009-11-14 01:05:00,19.5,9.1,10.4,0.0,13.3,112
2009-11-14 01:10:00,19.6,6.9,12.7,0.0,11.0,111
2009-11-14 01:15:00,19.6,6.0,13.6,0.0,13.1,112
2009-11-14 01:20:00,19.5,5.6,13.9,0.0,12.0,111
2009-11-14 01:25:00,19.2,5.2,14.0,0.1,18.9,111
2009-11-14 01:30:00,18.9,5.3,13.6,0.1,14.8,112
2009-11-14 01:35:00,18.8,6.9,11.9,0.1,8.5,111
2009-11-14 01:40:00,18.6,7.7,10.9,0.1,8.8,112
2009-11-14 01:45:00,18.5,3.6,14.8,0.1,5.2,111
2009-11-14 01:50:00,18.4,1.4,17.0,0.1,6.9,112
2009-11-14 01:55:00,18.4,1.8,16.6,0.1,3.2,111
2009-11-14 02:00:00,18.4,2.6,15.8,0.0,2.6,111
2009-11-14 02:05:00,18.6,1.1,17.5,0.0,4.5,112
2009-11-14 02:10:00,19.0,2.6,16.4,0.0,8.1,111
2009-11-14 02:15:00,18.6,1.4,17.2,0.1,8.1,111
2009-11-14 02:20:00,18.5,1.3,17.2,0.1,7.1,111
2009-11-14 02:25:00,18.5,1.4,17.1,0.1,7.4,111
2009-11-14 02:30:00,18.5,2.1,16.4,0.1,4.3,111
2009-11-14 02:35:00,18.4,2.3,16.1,0.0,3.5,111
2009-11-14 02:40:00,18.5,3.6,14.9,0.0,3.3,111
2009-11-14 02:45:00,18.6,2.8,15.8,0.1,3.1,112
2009-11-14 02:50:00,18.7,0.0,18.7,0.1,3.1,111
2009-11-14 02:55:00,19.7,-0.5,20.3,0.1,3.1,112
2009-11-14 03:00:00,22.2,-0.4,22.7,0.1,3.0,112
2009-11-14 03:05:00,23.1,-0.3,23.4,0.1,3.2,111
2009-11-14 03:10:00,23.1,2.9,20.2,0.0,3.1,112
2009-11-14 03:15:00,20.6,4.4,16.2,0.0,3.0,111
2009-11-14 03:20:00,19.6,4.7,14.9,0.0,3.1,112
2009-11-14 03:25:00,19.3,3.5,15.8,0.1,3.1,111
2009-11-14 03:30:00,19.1,3.6,15.5,0.1,3.1,112
2009-11-14 03:35:00,19.1,1.6,17.5,0.1,3.2,111
2009-11-14 03:40:00,19.6,-0.3,20.0,0.1,3.2,112
2009-11-14 03:45:00,22.0,0.6,21.4,0.1,3.1,110
2009-11-14 03:50:00,22.1,2.5,19.6,0.1,3.2,111
2009-11-14 03:55:00,20.4,3.5,17.0,0.0,3.0,112
2009-11-14 04:00:00,19.5,3.9,15.6,0.0,3.1,111
2009-11-14 04:05:00,19.2,4.7,14.5,0.0,3.1,112
2009-11-14 04:10:00,19.1,4.5,14.5,0.0,8.8,112
2009-11-14 04:15:00,18.7,1.5,17.2,0.0,9.2,112
2009-11-14 04:20:00,18.2,2.4,15.8,0.0,13.3,111
2009-11-14 04:25:00,17.5,4.5,12.9,0.0,8.6,111
2009-11-14 04:30:00,17.0,4.6,12.4,0.0,10.4,112
2009-11-14 04:35:00,16.6,5.6,11.0,0.0,27.8,111
2009-11-14 04:40:00,16.4,5.0,11.4,0.0,6.0,111
2009-11-14 04:45:00,16.7,1.2,15.5,0.1,2.3,112
2009-11-14 04:50:00,17.1,-1.6,18.7,0.1,2.3,111
2009-11-14 04:55:00,18.4,2.5,16.0,0.1,2.8,112
2009-11-14 05:00:00,17.9,2.7,15.2,0.1,2.7,111
2009-11-14 05:05:00,18.5,-1.6,20.1,0.1,2.6,111
2009-11-14 05:10:00,20.6,2.4,18.2,0.0,9.4,112
2009-11-14 05:15:00,18.6,5.1,13.5,0.0,19.8,111
2009-11-14 05:20:00,18.6,-0.4,19.0,0.0,3.1,112
2009-11-14 05:25:00,19.5,-1.2,20.7,0.0,2.7,111
2009-11-14 05:30:00,21.8,-0.8,22.6,0.0,4.7,112
2009-11-14 05:35:00,20.7,5.0,15.7,0.0,17.1,111
2009-11-14 05:40:00,19.8,-0.7,20.6,0.0,8.8,112
2009-11-14 05:45:00,19.2,4.9,14.3,0.0,16.6,112
2009-11-14 05:50:00,17.9,6.1,11.8,0.0,17.2,111
2009-11-14 05:55:00,18.0,-7.7,25.8,0.0,9.3,111
2009-11-14 06:00:00,20.6,-15.4,35.9,0.0,2.3,112
2009-11-14 06:05:00,21.3,-16.3,37.6,0.0,2.3,111
2009-11-14 06:10:00,21.6,-18.4,40.0,0.0,2.2,112
2009-11-14 06:15:00,21.9,-17.8,39.6,0.0,2.3,111
2009-11-14 06:20:00,22.0,-15.8,37.8,0.1,2.3,112
2009-11-14 06:25:00,22.2,-14.9,37.1,0.3,2.3,111
2009-11-14 06:30:00,22.3,-16.4,38.7,0.6,2.4,112
2009-11-14 06:35:00,22.4,-16.8,39.1,1.1,2.5,111
2009-11-14 06:40:00,22.4,-15.6,38.0,2.3,2.4,112
2009-11-14 06:45:00,22.5,-9.8,32.3,4.5,2.3,112
2009-11-14 06:50:00,22.7,0.2,22.4,6.8,2.3,111
2009-11-14 06:55:00,22.5,2.3,20.2,8.4,2.4,112
2009-11-14 07:00:00,20.0,0.9,19.1,13.3,3.2,111
2009-11-14 07:05:00,20.6,1.3,19.3,20.6,4.3,112
2009-11-14 07:10:00,19.6,-5.0,24.6,26.0,6.9,111
2009-11-14 07:15:00,21.5,-11.7,33.2,29.4,3.2,112
2009-11-14 07:20:00,22.1,-0.8,22.9,29.5,3.3,111
2009-11-14 07:25:00,20.3,0.2,20.0,27.9,27.6,111
2009-11-14 07:30:00,17.3,2.4,14.8,30.7,18.8,111
2009-11-14 07:35:00,16.2,2.6,13.6,29.3,22.0,112
2009-11-14 07:40:00,15.5,4.1,11.5,27.3,26.2,111
2009-11-14 07:45:00,15.2,3.4,11.9,28.5,26.6,111
2009-11-14 07:50:00,14.9,4.0,10.9,31.0,25.9,112
2009-11-14 07:55:00,14.9,1.7,13.1,31.6,19.1,111
2009-11-14 08:00:00,15.5,-0.1,15.5,32.0,10.6,111
2009-11-14 08:05:00,15.5,3.6,11.8,31.9,22.3,111
2009-11-14 08:10:00,15.5,0.9,14.6,31.8,10.8,112
2009-11-14 08:15:00,15.6,1.6,14.0,31.7,25.0,111
2009-11-14 08:20:00,15.0,4.6,10.5,31.9,33.3,112
2009-11-14 08:25:00,15.2,1.9,13.3,32.2,8.4,111
2009-11-14 08:30:00,15.7,3.8,11.9,32.1,20.9,111
2009-11-14 08:35:00,15.8,5.6,10.2,32.4,13.3,112
2009-11-14 08:40:00,16.5,-0.4,16.9,32.4,5.8,111
2009-11-14 08:45:00,16.8,0.4,16.4,32.4,2.6,111
2009-11-14 08:50:00,16.9,2.0,14.9,32.1,2.7,111
2009-11-14 08:55:00,17.1,-0.2,17.3,32.2,2.3,112
2009-11-14 09:00:00,19.5,-11.6,31.1,32.4,2.4,111
2009-11-14 09:05:00,21.5,-9.4,31.0,32.4,2.4,112
2009-11-14 09:10:00,22.2,-5.9,28.1,32.4,2.3,112
2009-11-14 09:15:00,22.6,-0.7,23.3,32.4,2.7,111
2009-11-14 09:20:00,23.0,1.2,21.7,32.4,2.6,111
2009-11-14 09:25:00,23.2,-7.8,31.1,32.5,2.5,112
2009-11-14 09:30:00,23.4,-9.8,33.2,32.5,2.5,111
2009-11-14 09:35:00,23.6,-0.7,24.3,32.5,2.4,112
2009-11-14 09:40:00,23.7,-5.7,29.4,32.5,2.6,111
2009-11-14 09:45:00,23.7,-8.0,31.7,32.4,2.6,112
2009-11-14 09:50:00,23.7,1.7,22.0,32.4,2.7,111
2009-11-14 09:55:00,23.5,-0.3,23.9,32.5,2.7,111
2009-11-14 10:00:00,23.6,1.2,22.4,32.4,2.6,111
2009-11-14 10:05:00,21.7,2.5,19.2,32.3,2.6,111
2009-11-14 10:10:00,21.2,1.4,19.8,32.4,2.7,111
2009-11-14 10:15:00,19.9,3.1,16.8,32.4,2.7,111
2009-11-14 10:20:00,19.4,3.5,15.9,32.4,2.5,112
2009-11-14 10:25:00,19.3,4.0,15.3,32.4,2.8,111
2009-11-14 10:30:00,19.2,3.8,15.4,32.4,2.7,112
2009-11-14 10:35:00,19.2,3.5,15.8,32.4,2.7,112
2009-11-14 10:40:00,19.4,2.3,17.1,32.4,2.8,111
2009-11-14 10:45:00,20.9,2.2,18.7,32.5,2.7,111
2009-11-14 10:50:00,21.9,-0.4,22.3,32.5,2.8,112
2009-11-14 10:55:00,22.8,2.8,20.0,32.3,2.8,111
2009-11-14 11:00:00,21.9,-1.6,23.5,32.4,3.9,111
2009-11-14 11:05:00,23.0,-1.1,24.1,32.4,3.9,112
2009-11-14 11:10:00,23.2,1.6,21.6,32.4,9.1,110
2009-11-14 11:15:00,21.1,2.8,18.3,32.5,4.4,111
2009-11-14 11:20:00,19.9,3.2,16.7,32.2,20.0,112
2009-11-14 11:25:00,18.3,6.9,11.5,32.2,26.0,111
2009-11-14 11:30:00,17.9,3.8,14.2,32.3,5.9,111
2009-11-14 11:35:00,18.3,1.7,16.7,32.3,4.4,112
2009-11-14 11:40:00,18.0,1.6,16.4,32.4,11.1,111
2009-11-14 11:45:00,17.9,4.5,13.5,32.3,18.1,111
2009-11-14 11:50:00,17.7,4.3,13.3,32.2,17.9,111
2009-11-14 11:55:00,17.7,1.2,16.5,32.4,3.7,111
2009-11-14 12:00:00,17.9,1.1,16.9,32.5,3.0,111
2009-11-14 12:05:00,18.2,1.6,16.6,32.5,3.1,112
2009-11-14 12:10:00,18.5,2.8,15.8,32.4,3.3,111
2009-11-14 12:15:00,18.4,4.0,14.4,32.2,21.6,112
2009-11-14 12:20:00,17.4,5.6,11.9,31.7,27.1,111
2009-11-14 12:25:00,16.9,6.7,10.2,31.8,33.6,112
2009-11-14 12:30:00,16.7,4.8,11.8,32.0,26.8,111
2009-11-14 12:35:00,17.1,3.5,13.5,32.4,8.4,112
2009-11-14 12:40:00,17.6,3.0,14.6,32.3,10.3,111
2009-11-14 12:45:00,17.8,3.2,14.6,32.3,3.4,111
2009-11-14 12:50:00,17.6,3.6,14.0,32.4,22.5,112
2009-11-14 12:55:00,19.2,-5.5,24.7,32.6,3.0,112
2009-11-14 13:00:00,22.5,-7.2,29.7,32.6,3.9,111
2009-11-14 13:05:00,23.7,-8.9,32.6,32.6,4.8,112
2009-11-14 13:10:00,23.6,-1.8,25.4,32.6,5.7,111
2009-11-14 13:15:00,24.0,0.2,23.9,32.5,6.4,112
2009-11-14 13:20:00,24.0,1.2,22.8,32.5,6.8,111
2009-11-14 13:25:00,23.9,1.5,22.4,32.5,6.6,111
2009-11-14 13:30:00,23.9,1.0,22.9,32.5,6.8,111
2009-11-14 13:35:00,23.8,1.6,22.2,32.5,7.2,111
2009-11-14 13:40:00,23.8,1.2,22.6,32.5,7.8,112
2009-11-14 13:45:00,23.9,1.7,22.1,32.4,8.0,111
2009-11-14 13:50:00,23.6,-0.5,24.1,32.4,14.9,112
2009-11-14 13:55:00,23.3,-2.7,26.0,32.5,13.2,111
2009-11-14 14:00:00,23.5,-14.9,38.4,32.6,13.8,112
2009-11-14 14:05:00,23.9,-12.2,36.1,32.5,15.1,111
2009-11-14 14:10:00,23.9,-12.8,36.7,32.6,17.8,111
2009-11-14 14:15:00,24.2,-16.9,41.1,32.6,18.3,112
2009-11-14 14:20:00,24.4,-8.8,33.1,32.6,17.2,111
2009-11-14 14:25:00,24.4,-3.3,27.6,32.6,17.3,112
2009-11-14 14:30:00,24.3,-5.4,29.8,32.6,17.3,111
2009-11-14 14:35:00,24.0,-8.9,32.8,32.6,16.9,112
2009-11-14 14:40:00,24.4,-8.4,32.9,32.6,16.2,112
2009-11-14 14:45:00,24.3,-3.3,27.6,32.5,15.2,111
2009-11-14 14:50:00,23.8,-1.0,24.9,32.3,13.9,111
2009-11-14 14:55:00,23.5,-0.3,23.8,32.2,13.0,112
2009-11-14 15:00:00,23.2,-0.9,24.0,32.3,11.6,112
2009-11-14 15:05:00,23.0,-0.5,23.5,32.1,10.2,111
2009-11-14 15:10:00,22.9,-1.1,24.0,32.2,9.4,112
2009-11-14 15:15:00,22.8,-0.7,23.5,32.0,8.8,111
2009-11-14 15:20:00,22.8,-1.2,23.9,32.1,8.1,112
2009-11-14 15:25:00,22.4,-1.0,23.3,32.1,7.7,112
2009-11-14 15:30:00,22.8,-0.3,23.0,32.0,7.7,111
2009-11-14 15:35:00,22.7,-0.4,23.2,31.9,7.5,112
2009-11-14 15:40:00,22.7,-0.3,23.0,31.7,7.5,111
2009-11-14 15:45:00,22.7,-0.2,22.9,31.6,7.4,112
2009-11-14 15:50:00,22.6,0.0,22.6,31.2,8.4,112
2009-11-14 15:55:00,22.6,0.2,22.4,31.0,8.4,111
2009-11-14 16:00:00,22.5,-0.0,22.5,30.9,8.4,112
2009-11-14 16:05:00,22.4,0.1,22.3,30.6,9.8,112
2009-11-14 16:10:00,22.3,-1.0,23.3,30.1,19.7,111
2009-11-14 16:15:00,21.9,-1.5,23.4,29.4,27.9,112
2009-11-14 16:20:00,21.6,-0.3,21.9,29.4,26.5,112
2009-11-14 16:25:00,21.7,-1.1,22.8,29.3,20.9,112
2009-11-14 16:30:00,21.9,-0.8,22.7,27.2,14.4,111
2009-11-14 16:35:00,22.1,-0.8,22.9,23.9,9.1,112
2009-11-14 16:40:00,22.2,-0.5,22.7,18.9,6.3,112
2009-11-14 16:45:00,22.3,-0.6,22.9,14.6,5.5,111
2009-11-14 16:50:00,22.3,-1.1,23.5,9.8,5.2,112
2009-11-14 16:55:00,22.2,-1.1,23.4,5.7,5.1,112
2009-11-14 17:00:00,22.2,-0.8,23.0,2.8,5.2,112
2009-11-14 17:05:00,22.1,-1.7,23.8,1.5,7.2,111
2009-11-14 17:10:00,22.1,-4.4,26.4,1.0,5.2,112
2009-11-14 17:15:00,22.0,-5.5,27.6,0.6,4.4,112
2009-11-14 17:20:00,21.9,-2.9,24.9,0.3,4.2,111
2009-11-14 17:25:00,22.0,-4.7,26.6,0.2,4.2,112
2009-11-14 17:30:00,21.9,-17.4,39.3,0.1,4.1,112
2009-11-14 17:35:00,21.7,-21.2,43.0,0.0,3.9,111
2009-11-14 17:40:00,21.6,-23.2,44.7,0.0,3.8,111
2009-11-14 17:45:00,21.4,-22.6,44.0,0.0,3.8,112
2009-11-14 17:50:00,21.3,-21.9,43.2,0.0,3.9,111
2009-11-14 17:55:00,21.2,-19.9,41.1,0.0,3.9,112
2009-11-14 18:00:00,21.1,-17.1,38.2,0.0,3.8,112
2009-11-14 18:05:00,21.1,-17.0,38.1,0.0,3.8,112
2009-11-14 18:10:00,21.1,-16.3,37.5,0.0,3.7,111
2009-11-14 18:15:00,21.2,-16.4,37.6,0.0,3.7,111
2009-11-14 18:20:00,21.1,-16.6,37.7,0.0,3.6,112
2009-11-14 18:25:00,21.2,-17.5,38.6,0.0,3.3,111
2009-11-14 18:30:00,21.2,-16.0,37.3,0.0,3.2,112
2009-11-14 18:35:00,21.2,-15.9,37.1,0.0,3.2,111
2009-11-14 18:40:00,21.2,-16.1,37.3,0.0,3.2,112
2009-11-14 18:45:00,21.2,-16.3,37.5,0.0,3.2,111
2009-11-14 18:50:00,21.0,-17.3,38.4,0.0,3.2,111
2009-11-14 18:55:00,21.0,-19.2,40.2,0.0,3.4,112
2009-11-14 19:00:00,21.0,-21.4,42.4,0.0,3.5,112
2009-11-14 19:05:00,20.8,-22.7,43.5,0.0,3.5,111
2009-11-14 19:10:00,20.8,-22.5,43.3,0.0,3.5,111
2009-11-14 19:15:00,20.8,-22.3,43.1,0.0,3.4,111
2009-11-14 19:20:00,20.8,-22.4,43.1,0.0,3.3,112
2009-11-14 19:25:00,20.8,-22.7,43.5,0.0,3.3,111
2009-11-14 19:30:00,20.8,-22.6,43.4,0.0,3.3,112
2009-11-14 19:35:00,20.8,-22.9,43.7,0.0,3.3,111
2009-11-14 19:40:00,20.8,-22.9,43.6,0.0,3.4,112
2009-11-14 19:45:00,20.8,-23.1,43.9,0.0,3.4,112
2009-11-14 19:50:00,20.8,-23.5,44.2,0.0,3.6,111
2009-11-14 19:55:00,20.8,-23.6,44.3,0.0,3.5,111
2009-11-14 20:00:00,20.4,-23.8,44.1,0.0,3.3,112
2009-11-14 20:05:00,20.8,-24.1,44.9,0.0,3.4,111
2009-11-14 20:10:00,20.8,-24.8,45.6,0.0,3.4,112
2009-11-14 20:15:00,20.8,-24.6,45.4,0.0,3.3,111
2009-11-14 20:20:00,20.8,-23.9,44.6,0.0,3.3,112
2009-11-14 20:25:00,20.8,-23.2,43.9,0.0,3.4,111
2009-11-14 20:30:00,20.8,-23.4,44.2,0.0,3.5,112
2009-11-14 20:35:00,20.7,-23.9,44.6,0.0,3.6,111
2009-11-14 20:40:00,20.7,-23.4,44.0,0.0,3.6,111
2009-11-14 20:45:00,20.7,-22.9,43.6,0.0,3.6,112
2009-11-14 20:50:00,20.9,-22.5,43.4,0.0,3.6,111
2009-11-14 20:55:00,20.6,-21.9,42.5,0.0,3.5,112
2009-11-14 21:00:00,20.7,-21.5,42.1,0.0,3.5,112
2009-11-14 21:05:00,20.7,-20.2,40.9,0.0,3.6,111
2009-11-14 21:10:00,20.7,-18.6,39.4,0.0,3.5,112
2009-11-14 21:15:00,20.8,-13.9,34.7,0.0,3.4,111
2009-11-14 21:20:00,20.8,-6.1,26.9,0.0,3.5,112
2009-11-14 21:25:00,21.0,-14.5,35.5,0.0,3.6,111
2009-11-14 21:30:00,21.0,-17.7,38.7,0.0,3.6,111
2009-11-14 21:35:00,20.9,-18.6,39.5,0.0,3.6,112
2009-11-14 21:40:00,20.9,-11.1,32.1,0.0,3.6,111
2009-11-14 21:45:00,21.1,-6.5,27.6,0.0,3.4,112
2009-11-14 21:50:00,21.0,-1.6,22.6,0.0,3.2,111
2009-11-14 21:55:00,20.0,-6.3,26.4,0.0,3.4,112
2009-11-14 22:00:00,21.1,-11.4,32.5,0.0,3.2,112
2009-11-14 22:05:00,21.2,-16.8,38.0,0.0,3.2,112
2009-11-14 22:10:00,21.0,-16.0,37.0,0.0,3.2,111
2009-11-14 22:15:00,21.1,-6.9,28.0,0.0,3.2,112
2009-11-14 22:20:00,20.2,0.3,19.8,0.0,3.2,111
2009-11-14 22:25:00,19.9,-6.1,26.1,0.0,3.2,112
2009-11-14 22:30:00,21.3,-4.1,25.5,0.0,3.2,112
2009-11-14 22:35:00,21.5,-1.2,22.7,0.0,3.1,111
2009-11-14 22:40:00,19.7,1.4,18.3,0.1,5.2,111
2009-11-14 22:45:00,17.6,1.6,16.0,0.1,4.0,112
2009-11-14 22:50:00,17.0,-0.9,17.9,0.1,3.6,111
2009-11-14 22:55:00,19.5,-2.3,21.7,0.1,3.3,112
2009-11-14 23:00:00,20.1,1.3,18.8,0.1,3.5,111
2009-11-14 23:05:00,17.9,-0.6,18.4,0.1,3.2,111
2009-11-14 23:10:00,17.2,-1.2,18.4,0.0,3.2,112
2009-11-14 23:15:00,17.0,2.8,14.3,0.0,3.2,111
2009-11-14 23:20:00,17.0,1.5,15.6,0.0,4.8,111
2009-11-14 23:25:00,16.8,1.1,15.7,0.0,7.8,111
2009-11-14 23:30:00,17.1,1.3,15.8,0.0,4.6,111
2009-11-14 23:35:00,18.6,-5.9,24.5,0.0,5.0,112
2009-11-14 23:40:00,19.8,1.8,18.1,0.0,3.7,111
2009-11-14 23:45:00,18.0,2.8,15.1,0.0,3.7,111
2009-11-14 23:50:00,17.6,5.2,12.4,0.1,6.8,112
2009-11-14 23:55:00,17.5,1.7,15.7,0.1,8.5,111
